Record,Date/Time,10,Tamb(K),Rh(%),Pres(mb),Tir(K),Rain,Az(deg),El(deg),TkBB(K), Ch  22.234, Ch  23.034, Ch  23.834, Ch  26.234, Ch  30.000, Ch  51.248, Ch  52.280, Ch  53.848, Ch  54.940, Ch  56.660, Ch  57.288, Ch  58.800, Ch 
Record,Date/Time,40,Tamb(K),Rh(%),Pres(mb),Tir(K),Rain
Record,Date/Time,50,Az(deg),El(deg),TkBB(K), Ch  22.000, Ch  22.234, Ch  22.500, Ch  23.000, Ch  23.034, Ch  23.500, Ch  23.834, Ch  24.000, Ch  24.500, Ch  25.000, Ch  25.500, Ch  26.000, Ch  26.234, Ch  26.500, Ch  27.000, Ch  27.500, Ch  28.000, Ch  28.500, Ch  29.000, Ch  29.500, Ch  30.000, Ch  51.248, Ch  51.760, Ch  52.280, Ch  52.804, Ch  53.336, Ch  53.848, Ch  54.400, Ch  54.940, Ch  55.500, Ch  56.020, Ch  56.660, Ch  57.288, Ch  57.964, Ch  58.800, Ch 
Record,Date/Time,80,ID,SNR,Tamb(K),Rh(%),Pres(mb),Tir(K),Rain,Az(deg),El(deg),TkBB(K), Ch  22.234, Ch  23.034, Ch  23.834, Ch  26.234, Ch  30.000, Ch  51.248, Ch  52.280, Ch  53.848, Ch  54.940, Ch  56.660, Ch  57.288, Ch  58.800, Ch 
     1,07/02/18 00:00:37,41, 289.1790,  80.3500,1015.2840, 232.0700,1
     2,07/02/18 00:01:14,51,  0.00, 19.80,304.743,118.217,122.370,122.095,118.832,,113.102,108.316,104.636, 97.082, 89.377, 84.342, 77.621,,, 73.231,, 68.950,, 66.927,, 67.430,231.364,248.912,266.338,281.120,288.734,291.011,290.274,289.684,288.473,288.090,288.436,286.627,288.097,288.491,
     3,07/02/18 00:01:33,51,  0.00, 90.00,304.783, 48.774, 50.882, 50.889, 49.387,, 46.626, 44.302, 43.292, 40.217, 37.465, 34.727, 32.321,,, 31.296,, 28.923,, 28.942,, 29.092,122.023,139.837,164.404,196.199,231.406,263.023,282.115,289.617,290.454,288.799,289.293,285.521,287.777,288.423,
     4,07/02/18 00:01:51,51,  0.00,160.20,304.771,106.266,110.383,110.197,107.236,,101.055, 95.739, 93.561, 85.831, 79.252, 73.246, 67.623,,, 62.768,, 58.754,, 56.969,, 56.925,218.053,237.097,257.661,275.963,286.414,290.245,290.948,289.633,289.018,288.373,288.313,285.919,287.794,287.711,
     5,07/02/18 00:02:15,41, 289.1480,  80.9200,1015.2260, 232.3400,1
     6,07/02/18 00:02:52,51,  0.00, 19.80,304.748,117.948,121.909,122.439,118.772,,112.323,107.763,104.768, 96.916, 88.907, 83.635, 77.783,,, 72.729,, 68.575,, 66.191,, 67.495,231.214,248.764,266.329,280.776,289.063,290.982,290.467,289.640,289.047,286.862,288.021,287.199,287.667,288.137,
     7,07/02/18 00:03:11,51,  0.00, 90.00,304.790, 48.681, 50.299, 50.566, 49.344,, 45.826, 44.275, 42.934, 40.117, 37.095, 34.343, 32.041,,, 30.328,, 28.591,, 28.268,, 28.876,121.822,139.678,164.009,195.618,231.438,263.420,282.923,289.727,290.905,288.230,289.258,285.886,287.689,288.278,
     8,07/02/18 00:03:29,51,  0.00,160.20,304.784,106.277,109.887,110.359,107.298,,100.362, 95.990, 93.242, 85.574, 78.359, 72.624, 66.949,,, 62.398,, 58.291,, 56.665,, 57.143,217.974,236.558,257.236,275.497,286.837,290.810,291.184,290.003,288.989,287.181,287.972,286.501,287.540,288.344,
     9,07/02/18 00:03:53,41, 289.4410,  80.4300,1015.1900, 232.8400,1
    10,07/02/18 00:04:30,51,  0.00, 19.80,304.755,118.079,121.857,122.182,119.089,,112.281,107.279,104.905, 97.195, 89.234, 84.240, 78.047,,, 72.797,, 68.578,, 66.783,, 67.835,231.513,248.936,266.625,281.144,289.014,290.842,290.223,289.545,289.188,287.976,288.316,287.052,287.974,288.274,
    11,07/02/18 00:04:49,51,  0.00, 90.00,304.745, 48.844, 50.602, 50.774, 49.776,, 46.417, 43.964, 43.334, 40.218, 36.656, 34.489, 32.541,,, 30.376,, 28.736,, 28.551,, 28.829,122.008,139.839,164.219,195.825,231.365,262.979,282.536,289.570,291.086,288.937,289.320,285.926,287.935,288.687,
    12,07/02/18 00:05:08,51,  0.00,160.20,304.759,106.474,109.968,109.833,106.971,,100.396, 95.763, 93.478, 85.642, 78.548, 72.868, 67.402,,, 62.760,, 58.418,, 56.648,, 57.314,217.979,237.071,257.697,275.522,286.543,290.644,290.711,289.376,288.869,287.550,287.964,286.282,287.534,287.846,
    13,07/02/18 00:05:32,41, 289.4130,  81.4900,1015.1900, 233.0300,1
    14,07/02/18 00:06:09,51,  0.00, 19.80,304.746,117.848,121.856,122.240,119.248,,112.087,107.435,104.833, 97.268, 89.419, 83.923, 77.507,,, 72.717,, 68.669,, 66.887,, 67.204,231.547,248.727,266.552,280.855,288.834,290.763,290.745,289.978,289.770,287.869,288.467,286.745,287.915,288.279,
    15,07/02/18 00:06:27,51,  0.00, 90.00,304.756, 48.942, 51.129, 50.819, 49.582,, 46.462, 44.158, 43.552, 40.617, 37.269, 34.941, 32.066,,, 30.954,, 29.097,, 28.888,, 29.017,121.790,139.172,164.200,195.765,231.174,263.005,282.911,290.056,290.965,288.746,289.003,285.223,287.796,288.171,
    16,07/02/18 00:06:46,51,  0.00,160.20,304.761,106.745,110.732,110.652,107.532,,100.810, 96.038, 93.543, 86.203, 78.928, 73.431, 67.700,,, 63.041,, 58.779,, 57.525,, 57.349,218.086,236.733,257.541,275.734,286.583,290.622,291.038,289.846,289.014,287.767,288.055,286.542,287.570,287.883,
    17,07/02/18 00:07:10,41, 289.2060,  80.5700,1015.2200, 232.8600,1
    18,07/02/18 00:07:47,51,  0.00, 19.80,304.716,118.577,122.301,121.831,118.974,,112.670,107.911,104.836, 97.233, 89.733, 84.212, 77.830,,, 72.842,, 68.386,, 66.489,, 67.163,231.390,248.258,266.436,281.125,288.880,290.690,290.104,289.935,289.748,287.394,288.215,286.868,288.072,288.752,
    19,07/02/18 00:08:05,51,  0.00, 90.00,304.724, 49.409, 51.470, 50.777, 49.646,, 46.775, 44.539, 43.245, 40.868, 37.406, 34.546, 32.464,,, 30.659,, 29.050,, 28.550,, 28.701,122.266,139.705,164.270,196.609,231.878,263.283,282.679,289.942,291.320,288.727,288.532,285.356,288.074,288.249,
    20,07/02/18 00:08:24,51,  0.00,160.20,304.712,107.134,110.753,110.512,107.621,,101.111, 96.041, 93.447, 86.392, 78.706, 73.235, 67.825,,, 62.921,, 58.425,, 56.748,, 57.425,218.324,236.848,257.694,276.239,286.928,290.598,290.683,290.158,289.628,287.490,287.548,286.291,287.756,287.677,
    21,07/02/18 00:08:48,41, 289.2880,  81.7000,1015.1560, 232.7200,1
    22,07/02/18 00:09:25,51,  0.00, 19.80,304.695,117.780,121.560,121.371,118.454,,112.352,107.561,104.252, 96.340, 89.151, 83.508, 77.623,,, 72.841,, 68.415,, 66.537,, 67.032,231.230,248.575,266.355,280.889,288.870,291.018,290.776,290.301,289.396,287.793,288.524,286.850,288.525,288.679,
    23,07/02/18 00:09:43,51,  0.00, 90.00,304.700, 49.001, 50.678, 50.146, 49.291,, 46.088, 44.200, 42.580, 40.110, 37.001, 34.609, 32.196,,, 30.710,, 28.820,, 28.580,, 28.999,121.849,139.523,164.136,195.972,231.451,263.280,282.768,290.026,291.035,288.302,289.356,285.466,288.769,288.814,
    24,07/02/18 00:10:02,51,  0.00,160.20,304.702,106.518,110.020,109.925,107.252,,100.923, 96.048, 93.290, 86.240, 78.803, 72.959, 67.464,,, 62.825,, 58.546,, 56.894,, 56.680,218.081,236.917,257.763,275.683,286.549,290.402,291.231,290.068,288.977,287.329,288.003,286.174,288.142,288.141,
    25,07/02/18 00:10:25,41, 289.2730,  80.1800,1015.2200, 232.8700,1
    26,07/02/18 00:11:02,51,  0.00, 19.80,304.674,118.166,121.841,121.845,118.819,,112.139,107.255,105.072, 97.249, 88.787, 83.955, 77.771,,, 72.912,, 68.226,, 65.989,, 67.070,231.529,248.600,266.543,280.706,288.922,291.146,290.848,289.930,288.965,287.635,287.990,286.715,288.116,288.175,
    27,07/02/18 00:11:21,51,  0.00, 90.00,304.640, 49.046, 50.322, 50.790, 49.672,, 46.435, 43.687, 43.228, 40.495, 36.819, 34.772, 32.514,,, 30.389,, 28.528,, 28.025,, 28.883,121.820,139.594,164.048,195.481,231.418,263.096,282.520,289.763,290.654,289.076,288.958,285.523,288.501,288.636,
    28,07/02/18 00:11:40,51,  0.00,160.20,304.680,106.953,110.356,110.434,107.634,,100.964, 96.095, 93.590, 86.000, 78.584, 73.645, 68.069,,, 62.721,, 58.569,, 56.415,, 56.380,218.181,237.015,257.470,275.277,286.702,290.452,291.133,289.762,289.357,288.111,287.764,285.962,287.396,288.140,
    29,07/02/18 00:12:04,41, 289.1090,  81.3800,1015.1480, 232.9500,1
    30,07/02/18 00:12:41,51,  0.00, 19.80,304.579,117.793,121.348,121.682,118.911,,112.577,106.864,104.148, 96.955, 88.914, 83.503, 77.646,,, 72.220,, 68.421,, 66.637,, 67.427,231.677,248.501,266.440,281.169,288.771,291.601,290.323,290.048,288.856,288.105,288.014,286.576,288.145,287.905,
    31,07/02/18 00:12:59,51,  0.00, 90.00,304.637, 48.997, 50.803, 50.282, 49.386,, 45.958, 43.650, 42.674, 40.745, 36.947, 34.424, 32.355,,, 30.655,, 28.909,, 28.868,, 28.471,122.348,139.684,164.130,196.224,231.301,263.170,282.962,289.902,290.430,288.970,288.760,285.563,287.962,288.258,
    32,07/02/18 00:13:18,51,  0.00,160.20,304.592,106.527,110.371,110.196,107.439,,100.989, 95.741, 93.305, 85.710, 78.417, 73.270, 67.482,,, 62.486,, 58.397,, 57.001,, 56.815,218.094,236.891,257.621,276.071,286.985,290.814,290.396,289.882,288.466,287.749,287.596,286.196,287.846,287.453,
    33,07/02/18 00:13:42,41, 289.0930,  81.2600,1015.1980, 232.8200,1
    34,07/02/18 00:14:19,51,  0.00, 19.80,304.616,118.105,121.523,121.800,118.960,,112.200,107.558,104.685, 96.665, 88.945, 83.631, 77.801,,, 72.503,, 68.108,, 66.114,, 67.424,231.521,248.553,266.442,281.334,289.016,291.070,290.801,290.345,289.162,287.588,288.208,286.560,287.743,288.207,
    35,07/02/18 00:14:38,51,  0.00, 90.00,304.622, 49.178, 50.770, 50.717, 49.536,, 46.759, 44.399, 42.962, 40.449, 36.834, 34.600, 32.571,,, 30.511,, 28.890,, 28.669,, 29.174,122.067,139.447,164.448,196.303,231.596,263.579,282.768,290.001,290.829,289.180,288.852,285.305,288.068,288.260,
    36,07/02/18 00:14:57,51,  0.00,160.20,304.615,107.026,110.421,110.330,107.536,,101.070, 95.958, 93.262, 86.161, 78.652, 73.105, 67.449,,, 62.363,, 58.330,, 56.638,, 57.376,218.344,236.580,257.705,276.245,286.978,290.413,290.817,290.161,288.754,287.593,287.752,285.858,287.736,287.580,
    37,07/02/18 00:15:21,41, 288.9950,  82.2900,1015.1940, 232.9400,1
    38,07/02/18 00:15:58,51,  0.00, 19.80,304.563,118.186,121.945,121.594,119.135,,111.689,107.545,104.956, 97.034, 88.866, 84.077, 77.794,,, 72.909,, 68.527,, 66.559,, 67.844,231.505,248.508,266.544,281.033,288.927,291.313,290.861,290.262,289.035,288.032,287.683,286.596,287.413,288.642,
    39,07/02/18 00:16:17,51,  0.00, 90.00,304.572, 49.177, 50.681, 50.401, 49.841,, 46.176, 44.228, 43.121, 40.529, 37.112, 35.372, 32.468,,, 30.675,, 28.691,, 28.666,, 28.976,122.326,139.447,164.002,195.925,231.092,263.267,282.611,289.670,291.034,288.896,288.558,285.093,287.372,287.866,
    40,07/02/18 00:16:35,51,  0.00,160.20,304.575,106.586,110.376,109.637,107.448,,100.156, 95.727, 93.148, 85.441, 78.514, 73.018, 67.588,,, 62.491,, 58.028,, 56.585,, 56.830,217.964,236.872,257.790,275.775,286.680,290.695,291.195,289.737,289.034,287.731,287.694,286.230,287.378,287.626,
    41,07/02/18 00:16:59,41, 289.2060,  81.3200,1015.1940, 233.1700,1
    42,07/02/18 00:17:36,51,  0.00, 19.80,304.548,118.005,121.871,121.710,119.040,,111.920,107.423,104.592, 96.997, 88.763, 83.789, 78.146,,, 72.795,, 68.201,, 66.510,, 67.226,231.697,248.714,266.217,280.666,288.228,291.347,289.789,289.747,288.843,287.398,287.830,286.581,287.997,288.031,
    43,07/02/18 00:17:54,51,  0.00, 90.00,304.562, 49.415, 50.980, 50.770, 49.386,, 46.640, 44.812, 43.491, 40.696, 37.134, 34.724, 32.927,,, 30.938,, 28.823,, 28.874,, 29.275,122.019,139.495,164.193,195.881,231.415,263.275,282.226,289.901,290.628,288.213,288.558,285.382,288.087,287.799,
    44,07/02/18 00:18:13,51,  0.00,160.20,304.562,106.719,110.339,110.138,107.354,,100.915, 95.774, 93.597, 85.514, 78.472, 72.956, 68.093,,, 62.845,, 58.021,, 56.817,, 57.260,218.515,236.888,257.676,275.469,286.632,290.949,290.274,289.905,289.072,287.242,287.636,286.154,287.639,287.427,
    45,07/02/18 00:18:36,41, 289.0380,  82.0500,1015.1480, 232.8800,1
    46,07/02/18 00:19:13,51,  0.00, 19.80,304.522,118.068,121.491,121.360,118.576,,112.151,107.603,104.609, 97.066, 89.332, 83.911, 77.488,,, 72.565,, 68.582,, 66.707,, 67.473,231.803,248.375,266.396,281.157,289.092,291.007,290.640,290.197,289.026,287.449,288.015,286.815,288.198,287.881,
    47,07/02/18 00:19:32,51,  0.00, 90.00,304.546, 48.947, 50.847, 50.685, 49.849,, 46.734, 44.872, 43.666, 40.460, 37.961, 35.007, 32.492,,, 30.626,, 29.464,, 29.121,, 29.242,122.327,139.301,164.237,195.905,231.277,263.237,283.049,289.780,290.161,288.708,288.987,286.243,288.060,288.186,
    48,07/02/18 00:19:51,51,  0.00,160.20,304.540,106.645,110.195,109.785,107.507,,101.059, 96.388, 93.572, 85.618, 79.077, 72.873, 67.505,,, 62.525,, 58.929,, 57.012,, 57.188,218.285,236.496,257.550,275.553,286.956,290.740,291.079,290.259,288.649,287.011,287.644,286.763,287.617,288.150,
    49,07/02/18 00:20:15,41, 289.1480,  81.9900,1015.2380, 232.7200,1
    50,07/02/18 00:20:52,51,  0.00, 19.80,304.518,117.981,121.989,121.720,118.895,,112.182,107.268,104.711, 97.192, 88.950, 84.005, 77.437,,, 72.462,, 68.182,, 66.518,, 67.940,231.766,248.501,266.623,281.089,288.982,291.221,290.606,290.268,289.390,288.354,288.233,286.844,287.948,288.893,
    51,07/02/18 00:21:11,51,  0.00, 90.00,304.514, 49.167, 50.960, 50.565, 49.469,, 46.642, 43.981, 43.292, 40.378, 36.546, 34.560, 32.271,,, 30.483,, 29.332,, 28.378,, 29.717,122.450,139.504,164.355,196.893,231.622,263.393,282.668,289.980,290.810,288.773,288.909,286.006,288.446,288.711,
    52,07/02/18 00:21:30,51,  0.00,160.20,304.496,106.523,110.321,110.161,107.626,,100.777, 95.592, 93.222, 85.629, 78.442, 73.269, 66.971,,, 62.611,, 58.626,, 56.455,, 57.361,217.951,236.750,257.822,276.019,287.198,290.446,291.055,290.093,289.121,288.230,287.872,286.058,287.743,288.710,
    53,07/02/18 00:21:54,41, 289.2180,  81.7900,1015.1740, 233.1100,1
    54,07/02/18 00:22:31,51,  0.00, 19.80,304.517,117.945,121.948,121.868,119.337,,112.276,107.402,104.834, 96.991, 89.016, 84.083, 77.734,,, 72.970,, 68.713,, 66.698,, 67.255,231.497,248.547,266.302,281.235,288.589,290.880,290.347,289.971,289.342,288.267,287.660,287.219,287.799,288.555,
    55,07/02/18 00:22:49,51,  0.00, 90.00,304.519, 49.376, 51.385, 51.205, 50.107,, 46.820, 44.647, 43.742, 40.867, 37.208, 34.854, 32.216,,, 31.110,, 29.033,, 29.106,, 28.699,122.081,139.548,164.246,196.214,231.316,262.613,282.371,289.400,290.729,288.603,288.664,285.782,287.613,287.788,
    56,07/02/18 00:23:08,51,  0.00,160.20,304.515,106.209,110.213,110.039,107.678,,100.624, 95.664, 93.278, 85.885, 78.453, 72.771, 67.124,,, 62.640,, 58.134,, 56.913,, 57.406,217.866,236.815,257.555,275.721,286.223,290.108,290.751,289.410,289.058,287.546,287.317,286.191,287.490,287.956,
    57,07/02/18 00:23:33,41, 289.0230,  82.0300,1015.1560, 233.1700,1
    58,07/02/18 00:24:10,51,  0.00, 19.80,304.477,117.703,121.754,121.422,118.771,,112.300,107.712,104.211, 96.954, 88.846, 83.662, 77.902,,, 72.458,, 68.659,, 66.666,, 67.454,231.782,248.495,267.037,280.888,289.307,291.125,290.068,290.492,289.443,288.409,288.405,287.317,288.536,288.345,
    59,07/02/18 00:24:29,51,  0.00, 90.00,304.478, 49.178, 51.315, 50.979, 50.132,, 47.163, 44.975, 43.526, 40.595, 37.186, 35.071, 32.635,,, 31.278,, 29.619,, 28.788,, 29.639,122.669,139.863,164.721,196.254,232.174,263.498,282.616,290.381,290.820,288.923,288.855,285.734,288.077,288.526,
    60,07/02/18 00:24:47,51,  0.00,160.20,304.479,106.424,110.190,109.901,107.180,,101.092, 96.076, 93.115, 85.864, 78.347, 72.944, 67.657,,, 62.522,, 58.897,, 57.133,, 57.824,218.096,236.838,258.083,275.765,287.085,290.749,291.005,290.176,289.174,287.831,287.727,286.317,287.891,288.282,
    61,07/02/18 00:25:11,41, 289.0930,  82.2000,1015.1100, 232.6300,1
    62,07/02/18 00:25:48,51,  0.00, 19.80,304.427,117.516,121.367,121.601,118.715,,112.450,107.273,104.534, 97.121, 88.814, 83.847, 78.144,,, 72.322,, 68.411,, 66.622,, 67.554,231.553,248.279,266.839,280.981,288.540,290.815,290.100,290.071,289.493,287.762,288.113,286.805,288.463,287.975,
    63,07/02/18 00:26:07,51,  0.00, 90.00,304.432, 49.007, 50.698, 50.596, 49.654,, 46.891, 44.020, 43.227, 40.447, 37.105, 34.589, 32.290,,, 30.368,, 28.911,, 28.839,, 28.834,122.383,139.310,164.618,196.129,231.328,263.186,282.296,290.081,291.211,288.500,289.090,285.470,288.679,288.133,
    64,07/02/18 00:26:26,51,  0.00,160.20,304.453,106.052,109.726,109.746,107.078,,100.796, 95.554, 93.123, 86.052, 78.629, 72.995, 67.566,,, 62.512,, 58.123,, 56.583,, 56.900,218.008,236.104,257.682,276.140,286.465,290.383,290.694,289.951,288.757,287.695,288.492,286.261,287.923,288.220,
    65,07/02/18 00:26:50,41, 289.2180,  80.9400,1015.1360, 232.5300,1
    66,07/02/18 00:27:27,51,  0.00, 19.80,304.427,117.596,121.775,121.767,118.964,,111.965,107.420,104.913, 97.033, 88.998, 83.443, 77.629,,, 72.771,, 68.264,, 66.379,, 67.261,231.580,248.706,266.692,281.101,288.874,291.065,290.289,290.061,289.194,288.395,287.960,286.926,287.997,288.727,
    67,07/02/18 00:27:46,51,  0.00, 90.00,304.433, 49.323, 51.465, 51.320, 50.317,, 46.849, 44.978, 44.103, 40.720, 37.429, 35.110, 32.727,,, 31.078,, 29.243,, 28.843,, 29.053,122.627,139.617,164.380,196.258,231.460,263.180,282.610,289.937,290.568,289.240,288.714,285.699,287.991,288.200,
    68,07/02/18 00:28:05,51,  0.00,160.20,304.451,106.498,110.438,110.347,107.474,,100.881, 95.981, 93.649, 85.919, 78.723, 73.144, 67.408,,, 62.762,, 58.728,, 56.905,, 57.008,217.857,236.401,257.596,276.063,287.003,290.603,290.703,289.635,289.065,287.942,287.520,286.337,288.025,288.045,
    69,07/02/18 00:28:29,41, 288.9950,  81.3300,1015.1320, 233.2000,1
    70,07/02/18 00:29:06,51,  0.00, 19.80,304.401,117.523,121.575,121.127,118.151,,111.694,107.121,104.594, 96.627, 88.920, 83.927, 77.415,,, 72.488,, 68.441,, 66.707,, 66.937,231.438,248.672,266.426,281.436,288.900,291.070,290.535,289.722,289.421,287.673,288.369,286.528,287.588,288.426,
    71,07/02/18 00:29:25,51,  0.00, 90.00,304.395, 49.052, 51.133, 50.825, 49.735,, 46.292, 44.093, 43.387, 40.338, 36.629, 35.049, 32.363,,, 30.828,, 29.116,, 28.887,, 28.520,122.457,139.842,164.439,196.260,231.228,263.559,282.801,289.713,291.216,288.672,288.976,285.213,287.788,288.280,
    72,07/02/18 00:29:44,51,  0.00,160.20,304.413,106.532,110.176,110.068,107.293,,100.683, 95.387, 93.224, 86.048, 78.372, 73.110, 67.270,,, 62.484,, 58.151,, 56.548,, 56.739,218.151,236.954,257.840,275.863,286.976,291.150,290.811,289.856,289.648,287.832,288.034,286.380,288.040,288.496,
    73,07/02/18 00:30:08,41, 288.9680,  82.4200,1015.1340, 233.1500,1
    74,07/02/18 00:30:45,51,  0.00, 19.80,304.354,117.732,121.282,121.351,118.214,,111.570,107.242,104.523, 96.418, 88.899, 83.680, 77.655,,, 72.231,, 68.397,, 66.576,, 66.994,231.609,248.654,266.005,280.560,288.835,291.044,290.261,289.546,289.077,288.110,288.110,286.575,288.703,289.122,
    75,07/02/18 00:31:04,51,  0.00, 90.00,304.353, 49.511, 51.125, 51.289, 50.022,, 46.965, 45.338, 44.070, 40.974, 37.582, 35.300, 32.925,,, 30.918,, 29.370,, 29.399,, 30.011,121.980,139.737,164.304,196.372,231.802,263.166,283.324,289.882,290.823,288.831,288.963,286.041,288.537,288.653,
    76,07/02/18 00:31:23,51,  0.00,160.20,304.373,106.988,110.199,110.557,107.392,,101.107, 96.182, 93.688, 85.992, 79.060, 73.297, 67.724,,, 62.613,, 58.785,, 57.218,, 58.230,218.057,236.513,257.590,275.831,286.791,290.562,291.139,289.693,288.722,287.588,287.760,286.637,288.138,288.264,
    77,07/02/18 00:31:47,41, 289.0930,  81.6600,1015.1220, 233.0300,1
    78,07/02/18 00:32:24,51,  0.00, 19.80,304.340,116.866,121.782,121.216,118.198,,111.791,106.953,104.147, 96.773, 88.127, 83.515, 77.706,,, 72.510,, 68.437,, 66.231,, 67.746,231.518,248.731,266.395,281.127,288.684,291.055,290.554,289.772,288.890,287.834,287.949,286.623,287.739,287.781,
    79,07/02/18 00:32:43,51,  0.00, 90.00,304.349, 49.154, 51.282, 50.972, 49.742,, 46.599, 44.500, 43.741, 41.385, 36.981, 35.425, 32.791,,, 30.896,, 29.299,, 29.230,, 29.784,122.196,139.808,164.333,196.414,231.464,263.203,282.993,289.570,290.668,288.232,288.946,285.500,287.661,288.054,
    80,07/02/18 00:33:02,51,  0.00,160.20,304.356,106.117,110.600,110.110,107.333,,100.602, 95.750, 93.447, 86.069, 78.377, 73.416, 67.702,,, 62.709,, 58.759,, 57.095,, 57.765,218.114,237.007,257.395,275.789,286.500,290.539,291.386,289.891,288.919,287.192,287.546,285.794,287.838,287.940,
    81,07/02/18 00:33:26,41, 288.9800,  82.2600,1015.0900, 233.4100,1
    82,07/02/18 00:34:03,51,  0.00, 19.80,304.309,117.236,120.748,121.216,118.092,,110.978,106.407,103.474, 96.289, 88.305, 83.453, 77.243,,, 72.582,, 68.274,, 66.256,, 67.401,231.074,248.449,266.313,281.133,288.516,290.734,290.345,289.612,289.031,288.470,288.066,286.746,288.133,288.796,
    83,07/02/18 00:34:22,51,  0.00, 90.00,304.314, 49.184, 50.682, 50.922, 49.605,, 46.013, 44.472, 43.005, 40.204, 37.032, 34.896, 32.489,,, 30.931,, 29.152,, 29.060,, 29.444,122.067,140.045,164.643,196.519,231.088,263.529,282.461,289.507,290.652,288.746,288.577,285.311,287.606,288.239,
    84,07/02/18 00:34:40,51,  0.00,160.20,304.345,106.011,109.763,110.090,107.098,,100.238, 95.054, 92.712, 85.681, 78.111, 73.069, 67.176,,, 62.497,, 58.326,, 56.799,, 57.313,217.390,236.820,257.625,275.880,286.317,290.618,291.238,289.869,289.700,288.105,287.524,285.943,287.733,288.298,
    85,07/02/18 00:35:05,41, 289.2730,  82.1300,1015.0980, 232.8900,1
    86,07/02/18 00:35:42,51,  0.00, 19.80,304.309,117.221,120.969,120.998,117.825,,111.375,106.955,104.296, 96.281, 88.494, 83.245, 77.236,,, 72.658,, 68.094,, 66.050,, 67.641,230.958,248.145,266.377,280.595,288.934,291.245,290.415,289.878,289.389,287.595,288.188,286.573,287.955,288.163,
    87,07/02/18 00:36:01,51,  0.00, 90.00,304.312, 49.368, 51.321, 51.214, 49.958,, 47.159, 45.040, 43.701, 40.383, 37.645, 34.896, 32.864,,, 30.806,, 28.913,, 29.044,, 29.117,122.084,139.278,164.589,195.966,231.912,263.287,282.216,289.528,290.712,288.742,288.660,285.335,287.696,287.811,
    88,07/02/18 00:36:20,51,  0.00,160.20,304.294,106.335,110.050,109.837,106.716,,100.586, 95.515, 93.147, 85.778, 78.675, 72.781, 66.894,,, 62.528,, 58.184,, 56.441,, 57.733,217.888,236.327,257.404,275.306,286.770,290.667,290.823,289.533,289.136,287.238,287.854,286.085,287.709,287.837,
    89,07/02/18 00:36:44,41, 289.1200,  80.8200,1015.0860, 233.4900,1
    90,07/02/18 00:37:21,51,  0.00, 19.80,304.318,117.029,120.295,120.375,118.102,,111.444,106.920,103.967, 96.305, 88.231, 83.363, 77.347,,, 72.243,, 68.141,, 66.280,, 67.295,230.972,248.459,266.400,280.989,288.624,290.695,290.322,290.346,289.368,287.965,287.768,286.963,288.274,288.171,
    91,07/02/18 00:37:39,51,  0.00, 90.00,304.339, 48.911, 50.886, 50.640, 50.196,, 46.634, 44.979, 43.612, 40.661, 37.206, 35.115, 32.836,,, 30.917,, 29.145,, 29.088,, 29.103,122.366,139.747,164.589,196.422,231.217,263.413,283.084,290.348,291.029,288.935,288.596,285.411,288.195,288.373,
    92,07/02/18 00:37:58,51,  0.00,160.20,304.323,105.830,109.683,109.248,107.059,,100.424, 95.989, 93.171, 85.275, 78.316, 72.689, 67.574,,, 62.399,, 58.535,, 56.990,, 56.862,217.855,236.939,257.842,275.830,286.390,290.455,291.233,290.021,289.440,287.735,287.819,285.759,287.577,288.128,
    93,07/02/18 00:38:23,41, 289.0660,  82.0200,1015.1060, 232.7000,1
    94,07/02/18 00:38:59,51,  0.00, 19.80,304.280,117.084,120.440,120.086,117.352,,111.186,106.350,103.336, 96.001, 88.372, 83.169, 77.252,,, 72.169,, 68.088,, 66.106,, 66.672,231.369,248.491,266.526,280.921,289.154,291.238,290.466,289.644,289.858,288.746,288.031,286.793,288.183,288.302,
    95,07/02/18 00:39:18,51,  0.00, 90.00,304.283, 49.662, 51.142, 50.825, 49.346,, 47.161, 44.551, 43.407, 40.407, 37.170, 34.470, 32.518,,, 30.680,, 28.931,, 28.778,, 28.707,122.418,139.495,164.573,196.075,231.744,263.464,282.716,289.894,290.957,289.206,288.703,285.787,287.986,287.753,
    96,07/02/18 00:39:37,51,  0.00,160.20,304.268,106.482,109.919,109.266,106.735,,100.612, 95.570, 92.736, 85.336, 78.567, 72.844, 67.531,,, 62.192,, 58.095,, 56.825,, 56.785,217.812,236.388,258.109,275.658,286.666,290.423,290.844,289.546,289.286,287.753,287.739,286.201,287.711,287.905,
    97,07/02/18 00:40:01,41, 289.0540,  81.3800,1015.1060, 232.4600,1
    98,07/02/18 00:40:38,51,  0.00, 19.80,304.262,116.844,120.868,120.581,117.652,,111.754,106.794,103.592, 96.588, 88.121, 83.194, 77.248,,, 72.194,, 67.970,, 66.397,, 67.195,231.037,248.056,266.261,280.922,289.284,291.241,290.692,290.753,289.523,287.141,287.967,286.876,288.568,287.983,